VIR255 KMCO-EGLL

Flight info

Callsign VIR255
Flight time N/A
Altitude 35000
Route JEEMY4 PAINN SHRKS BERTT GURGE RAYVO Q87 NOWAE FAK BOOYA Q34 RBV Q22 LLUND BIZEX Q133 CAM BEEHS JIGZY TAFFY N693A NEEKO 5350N 5440N 5430N 5420N DOGAL BEXET ENJEX AVZAC INFEC JETZI AMFUL ORZEB P2 SIRIC
Aircraft A346/H-SDE2E3FGHIJ3J4J5M1RWXY/LB1D1

Departure

Time 2026-04-25 13:13
Airport Orlando International Airport (KMCO)

Arrival

Time N/A
Airport London Heathrow Airport (EGLL)
Time Latitude Longitude Altitude Speed Heading
2026-04-25 12:00 28.43334 -81.30009 103 ft 0 kts 342°
2026-04-25 12:39 28.43313 -81.30001 103 ft 4 kts 344°
2026-04-25 12:39 28.43299 -81.29996 103 ft 4 kts
2026-04-25 12:39 28.43303 -81.29995 103 ft 4 kts 15°
2026-04-25 12:39 28.43285 -81.30005 101 ft 4 kts 50°
2026-04-25 12:40 28.43277 -81.30026 103 ft 4 kts 77°
2026-04-25 12:40 28.43273 -81.30046 103 ft 0 kts 71°
2026-04-25 12:45 28.43276 -81.30036 103 ft 2 kts 71°
2026-04-25 12:45 28.43282 -81.30015 102 ft 4 kts 71°
2026-04-25 12:45 28.43312 -81.29922 105 ft 6 kts 69°
2026-04-25 12:46 28.43317 -81.29907 103 ft 0 kts 68°
2026-04-25 12:48 28.43317 -81.29906 105 ft 1 kts 68°
2026-04-25 12:48 28.43326 -81.29881 105 ft 5 kts 68°
2026-04-25 12:48 28.43335 -81.29830 105 ft 8 kts 87°
2026-04-25 12:48 28.43337 -81.29761 106 ft 9 kts 95°
2026-04-25 12:49 28.43297 -81.29715 105 ft 9 kts 168°
2026-04-25 12:49 28.43225 -81.29710 105 ft 11 kts 178°
2026-04-25 12:49 28.43138 -81.29708 105 ft 13 kts 179°
2026-04-25 12:49 28.43068 -81.29707 105 ft 9 kts 179°
2026-04-25 12:50 28.43040 -81.29707 105 ft 0 kts 180°
2026-04-25 12:52 28.43037 -81.29707 105 ft 1 kts 180°
2026-04-25 12:52 28.43019 -81.29707 105 ft 4 kts 180°
2026-04-25 12:52 28.42981 -81.29707 105 ft 6 kts 180°
2026-04-25 12:53 28.42926 -81.29706 105 ft 9 kts 180°
2026-04-25 12:53 28.42850 -81.29705 105 ft 12 kts 179°
2026-04-25 12:53 28.42758 -81.29704 105 ft 14 kts 179°
2026-04-25 12:53 28.42653 -81.29703 104 ft 16 kts 179°
2026-04-25 12:54 28.42543 -81.29701 104 ft 16 kts 179°
2026-04-25 12:54 28.42453 -81.29700 104 ft 9 kts 179°
2026-04-25 12:54 28.42400 -81.29700 104 ft 3 kts 179°
2026-04-25 12:54 28.42381 -81.29699 105 ft 0 kts 179°
2026-04-25 12:55 28.42380 -81.29699 105 ft 1 kts 179°
2026-04-25 12:55 28.42324 -81.29702 104 ft 9 kts 198°
2026-04-25 12:55 28.42293 -81.29731 105 ft 5 kts 239°
2026-04-25 12:56 28.42284 -81.29776 104 ft 7 kts 264°
2026-04-25 12:56 28.42281 -81.29839 103 ft 9 kts 268°
2026-04-25 12:56 28.42278 -81.29918 103 ft 11 kts 269°
2026-04-25 12:56 28.42278 -81.30007 103 ft 12 kts 270°
2026-04-25 12:57 28.42277 -81.30108 103 ft 13 kts 269°
2026-04-25 12:57 28.42276 -81.30218 103 ft 14 kts 269°
2026-04-25 12:57 28.42275 -81.30335 103 ft 15 kts 268°
2026-04-25 12:57 28.42268 -81.30457 103 ft 16 kts 265°
2026-04-25 12:58 28.42260 -81.30580 107 ft 15 kts 265°
2026-04-25 12:58 28.42251 -81.30706 104 ft 16 kts 265°
2026-04-25 12:58 28.42242 -81.30838 104 ft 17 kts 265°
2026-04-25 12:58 28.42233 -81.30964 105 ft 14 kts 268°
2026-04-25 12:59 28.42241 -81.31075 103 ft 14 kts 279°
2026-04-25 12:59 28.42258 -81.31189 105 ft 14 kts 279°
2026-04-25 12:59 28.42268 -81.31302 103 ft 15 kts 272°
2026-04-25 12:59 28.42268 -81.31421 104 ft 15 kts 269°
2026-04-25 13:00 28.42267 -81.31534 105 ft 14 kts 269°
2026-04-25 13:00 28.42266 -81.31602 105 ft 13 kts 269°
2026-04-25 13:00 28.42265 -81.31738 107 ft 13 kts 269°
2026-04-25 13:00 28.42264 -81.31834 107 ft 9 kts 269°
2026-04-25 13:01 28.42263 -81.31895 107 ft 5 kts 269°
2026-04-25 13:01 28.42268 -81.31949 109 ft 8 kts 292°
2026-04-25 13:01 28.42302 -81.31983 110 ft 6 kts 345°
2026-04-25 13:01 28.42339 -81.31986 111 ft 6 kts 356°
2026-04-25 13:02 28.42407 -81.31988 109 ft 14 kts 359°
2026-04-25 13:02 28.42531 -81.31990 109 ft 22 kts 359°
2026-04-25 13:02 28.42692 -81.31991 111 ft 23 kts 360°
2026-04-25 13:02 28.42861 -81.31993 108 ft 26 kts 359°
2026-04-25 13:03 28.43044 -81.31995 107 ft 27 kts 359°
2026-04-25 13:03 28.43231 -81.31997 107 ft 27 kts 359°
2026-04-25 13:03 28.43419 -81.31999 107 ft 28 kts 359°
2026-04-25 13:03 28.43614 -81.32002 108 ft 28 kts 359°
2026-04-25 13:04 28.43805 -81.32003 107 ft 26 kts 359°
2026-04-25 13:04 28.43948 -81.32006 107 ft 20 kts 359°
2026-04-25 13:04 28.44093 -81.32007 108 ft 21 kts 359°
2026-04-25 13:04 28.44246 -81.32008 107 ft 22 kts 359°
2026-04-25 13:05 28.44385 -81.32010 107 ft 18 kts 359°
2026-04-25 13:05 28.44501 -81.32011 106 ft 14 kts 359°
2026-04-25 13:05 28.44590 -81.32012 107 ft 11 kts 360°
2026-04-25 13:05 28.44674 -81.32016 107 ft 12 kts 342°
2026-04-25 13:06 28.44709 -81.32077 109 ft 6 kts 278°
2026-04-25 13:06 28.44710 -81.32090 107 ft 0 kts 273°
2026-04-25 13:09 28.44711 -81.32104 106 ft 4 kts 273°
2026-04-25 13:10 28.44712 -81.32150 106 ft 8 kts 271°
2026-04-25 13:10 28.44698 -81.32211 108 ft 8 kts 222°
2026-04-25 13:10 28.44636 -81.32230 107 ft 10 kts 179°
2026-04-25 13:10 28.44633 -81.32230 107 ft 0 kts 179°
2026-04-25 13:12 28.44599 -81.32229 108 ft 20 kts 179°
2026-04-25 13:12 28.44243 -81.32225 109 ft 81 kts 180°
2026-04-25 13:12 28.43489 -81.32217 107 ft 137 kts 179°
2026-04-25 13:12 28.42773 -81.32210 109 ft 172 kts 179°
2026-04-25 13:13 28.41044 -81.32178 620 ft 198 kts 178°
2026-04-25 13:13 28.39622 -81.32195 837 ft 205 kts 192°
2026-04-25 13:13 28.38289 -81.32802 1089 ft 219 kts 207°
2026-04-25 13:13 28.36895 -81.33684 1308 ft 240 kts 209°
2026-04-25 13:14 28.35449 -81.34732 1516 ft 251 kts 218°
2026-04-25 13:14 28.34189 -81.36117 1756 ft 253 kts 228°
2026-04-25 13:14 28.33055 -81.37662 1979 ft 255 kts 230°
2026-04-25 13:14 28.31921 -81.39232 2195 ft 256 kts 230°
2026-04-25 13:15 28.30789 -81.40793 2423 ft 257 kts 230°
2026-04-25 13:15 28.29643 -81.42364 2642 ft 260 kts 230°
2026-04-25 13:15 28.28483 -81.43949 2863 ft 261 kts 229°
2026-04-25 13:15 28.27348 -81.45566 3078 ft 263 kts 239°
2026-04-25 13:16 28.26780 -81.47502 3290 ft 266 kts 266°
2026-04-25 13:16 28.27060 -81.49588 3497 ft 268 kts 295°
2026-04-25 13:16 28.28169 -81.51288 3746 ft 269 kts 317°
2026-04-25 13:16 28.29604 -81.52660 3969 ft 270 kts 322°
2026-04-25 13:17 28.31094 -81.53956 4192 ft 270 kts 323°
2026-04-25 13:17 28.32597 -81.55239 4422 ft 270 kts 323°
2026-04-25 13:17 28.34105 -81.56523 4641 ft 271 kts 323°
2026-04-25 13:17 28.35654 -81.57742 4852 ft 271 kts 335°
2026-04-25 13:18 28.37459 -81.58348 5066 ft 272 kts 350°
2026-04-25 13:18 28.39307 -81.58670 5291 ft 273 kts 353°
2026-04-25 13:18 28.41194 -81.58939 5652 ft 273 kts 353°
2026-04-25 13:18 28.43084 -81.59195 6037 ft 275 kts 353°
2026-04-25 13:19 28.44989 -81.59453 6424 ft 276 kts 353°
2026-04-25 13:19 28.46899 -81.59711 6912 ft 277 kts 353°
2026-04-25 13:19 28.48837 -81.59962 7452 ft 278 kts 353°
2026-04-25 13:19 28.49493 -81.60045 7628 ft 279 kts 353°
2026-04-25 13:20 28.52712 -81.60425 8557 ft 281 kts 353°
2026-04-25 13:20 28.54001 -81.60572 8926 ft 282 kts 353°
2026-04-25 13:20 28.56631 -81.60860 9698 ft 285 kts 353°
2026-04-25 13:20 28.58581 -81.61059 10229 ft 288 kts 355°
2026-04-25 13:21 28.60596 -81.60754 10638 ft 303 kts 19°
2026-04-25 13:21 28.62552 -81.59703 10947 ft 320 kts 26°
2026-04-25 13:21 28.64559 -81.58468 11217 ft 335 kts 26°
2026-04-25 13:21 28.66645 -81.57212 11489 ft 351 kts 25°
2026-04-25 13:22 28.68915 -81.55894 11765 ft 366 kts 24°
2026-04-25 13:22 28.71242 -81.54579 12087 ft 379 kts 24°
2026-04-25 13:22 28.73630 -81.53247 12655 ft 384 kts 24°
2026-04-25 13:23 28.78436 -81.50588 14009 ft 389 kts 23°
2026-04-25 13:23 28.80881 -81.49243 14570 ft 393 kts 23°
2026-04-25 13:23 28.83358 -81.47882 15110 ft 397 kts 23°
2026-04-25 13:23 28.85857 -81.46507 15635 ft 401 kts 23°
2026-04-25 13:24 28.88380 -81.45119 15941 ft 404 kts 23°
2026-04-25 13:24 28.90914 -81.43723 15985 ft 404 kts 23°
2026-04-25 13:24 28.93494 -81.42469 15980 ft 402 kts 15°
2026-04-25 13:24 28.96204 -81.41774 15991 ft 399 kts
2026-04-25 13:25 28.98928 -81.41675 16002 ft 397 kts 354°
2026-04-25 13:25 29.01701 -81.41945 16304 ft 403 kts 352°
2026-04-25 13:25 29.04504 -81.42267 16993 ft 403 kts 352°
2026-04-25 13:25 29.07298 -81.42590 17601 ft 405 kts 352°
2026-04-25 13:26 29.10121 -81.42910 18122 ft 410 kts 352°
2026-04-25 13:26 29.12978 -81.43197 18596 ft 414 kts 353°
2026-04-25 13:26 29.15858 -81.43471 19070 ft 417 kts 353°
2026-04-25 13:26 29.18761 -81.43743 19583 ft 419 kts 353°
2026-04-25 13:27 29.21686 -81.44018 20085 ft 422 kts 353°
2026-04-25 13:27 29.24615 -81.44294 20584 ft 424 kts 353°
2026-04-25 13:27 29.27566 -81.44574 21073 ft 427 kts 353°
2026-04-25 13:27 29.30534 -81.44855 21541 ft 429 kts 353°
2026-04-25 13:28 29.33477 -81.45135 22003 ft 432 kts 353°
2026-04-25 13:28 29.34492 -81.45232 22158 ft 433 kts 353°
2026-04-25 13:28 29.39503 -81.45709 22947 ft 437 kts 353°
2026-04-25 13:28 29.42543 -81.45998 23411 ft 440 kts 353°
2026-04-25 13:29 29.45601 -81.46289 23804 ft 442 kts 353°
2026-04-25 13:29 29.48677 -81.46583 24184 ft 445 kts 353°
2026-04-25 13:29 29.51769 -81.46878 24569 ft 447 kts 354°
2026-04-25 13:30 29.57999 -81.47475 25320 ft 452 kts 354°
2026-04-25 13:30 29.61142 -81.47767 25675 ft 454 kts 354°
2026-04-25 13:30 29.64300 -81.48054 26046 ft 457 kts 354°
2026-04-25 13:31 29.70622 -81.48628 26774 ft 461 kts 355°
2026-04-25 13:31 29.73824 -81.48918 27130 ft 463 kts 355°
2026-04-25 13:31 29.77041 -81.49209 27482 ft 465 kts 355°
2026-04-25 13:31 29.80270 -81.49502 27838 ft 467 kts 355°
2026-04-25 13:32 29.83516 -81.49814 28185 ft 469 kts 354°
2026-04-25 13:32 29.86757 -81.50293 28558 ft 470 kts 351°
2026-04-25 13:32 29.89971 -81.50973 29040 ft 469 kts 348°
2026-04-25 13:32 29.93134 -81.51844 29587 ft 466 kts 345°
2026-04-25 13:33 29.96203 -81.52872 30096 ft 465 kts 344°
2026-04-25 13:33 29.99290 -81.53963 30506 ft 463 kts 343°
2026-04-25 13:33 30.02366 -81.55062 30889 ft 463 kts 343°
2026-04-25 13:33 30.03404 -81.55434 31016 ft 463 kts 343°
2026-04-25 13:34 30.08508 -81.57263 31620 ft 462 kts 343°
2026-04-25 13:34 30.11577 -81.58364 31984 ft 461 kts 343°
2026-04-25 13:34 30.14643 -81.59463 32358 ft 461 kts 343°
2026-04-25 13:34 30.17700 -81.60560 32749 ft 459 kts 343°
2026-04-25 13:35 30.20750 -81.61655 33129 ft 458 kts 343°
2026-04-25 13:35 30.23793 -81.62747 33470 ft 458 kts 343°
2026-04-25 13:35 30.26800 -81.63826 33742 ft 459 kts 343°
2026-04-25 13:35 30.29858 -81.64925 33984 ft 461 kts 343°
2026-04-25 13:36 30.32924 -81.66027 34206 ft 462 kts 342°
2026-04-25 13:36 30.35999 -81.67132 34377 ft 464 kts 342°
2026-04-25 13:36 30.39081 -81.68242 34583 ft 465 kts 342°
2026-04-25 13:36 30.42171 -81.69356 34828 ft 465 kts 342°
2026-04-25 13:37 30.45261 -81.70470 34963 ft 465 kts 342°
2026-04-25 13:37 30.51443 -81.72702 34962 ft 465 kts 342°
2026-04-25 13:38 30.57722 -81.74536 34969 ft 465 kts 349°
2026-04-25 13:38 30.64146 -81.75486 34967 ft 466 kts 356°
2026-04-25 13:39 30.70585 -81.75531 34968 ft 467 kts
2026-04-25 13:39 30.77046 -81.74833 34968 ft 466 kts
2026-04-25 13:40 30.83494 -81.74018 34962 ft 466 kts
2026-04-25 13:40 30.89938 -81.73204 34966 ft 466 kts
2026-04-25 13:41 30.96341 -81.72397 34965 ft 466 kts
2026-04-25 13:41 31.02781 -81.71585 34971 ft 465 kts
2026-04-25 13:42 31.09217 -81.70774 34964 ft 465 kts
2026-04-25 13:42 31.15631 -81.69727 34962 ft 466 kts
2026-04-25 13:43 31.21896 -81.67942 34958 ft 467 kts 15°
2026-04-25 13:43 31.28157 -81.65683 34963 ft 468 kts 15°
2026-04-25 13:44 31.34359 -81.63408 34961 ft 466 kts 16°
2026-04-25 13:44 31.40553 -81.61137 34960 ft 466 kts 16°
2026-04-25 13:45 31.46743 -81.58867 34966 ft 466 kts 16°
2026-04-25 13:45 31.52936 -81.56593 34963 ft 467 kts 16°
2026-04-25 13:46 31.59100 -81.54329 34957 ft 467 kts 16°
2026-04-25 13:46 31.65307 -81.52045 34950 ft 467 kts 16°
2026-04-25 13:47 31.71511 -81.49758 34948 ft 467 kts 16°
2026-04-25 13:47 31.77716 -81.47468 34949 ft 467 kts 16°
2026-04-25 13:48 31.83933 -81.45172 34948 ft 469 kts 16°
2026-04-25 13:48 31.90118 -81.42883 34948 ft 469 kts 16°
2026-04-25 13:49 31.96347 -81.40574 34947 ft 469 kts 16°
2026-04-25 13:49 32.02571 -81.38263 34954 ft 469 kts 16°
2026-04-25 13:50 32.08801 -81.35946 34957 ft 470 kts 16°
2026-04-25 13:50 32.14997 -81.33640 34955 ft 470 kts 16°
2026-04-25 13:51 32.21237 -81.31314 34956 ft 470 kts 16°
2026-04-25 13:51 32.27473 -81.28985 34952 ft 470 kts 16°
2026-04-25 13:52 32.33708 -81.26654 34951 ft 469 kts 16°
2026-04-25 13:52 32.39918 -81.24276 34934 ft 469 kts 18°
2026-04-25 13:53 32.45904 -81.21280 34930 ft 471 kts 25°
2026-04-25 13:53 32.51614 -81.17462 34932 ft 472 kts 31°
2026-04-25 13:54 32.56940 -81.12875 34928 ft 474 kts 37°
2026-04-25 13:54 32.62065 -81.07913 34930 ft 476 kts 37°
2026-04-25 13:55 32.67189 -81.02916 34928 ft 477 kts 37°
2026-04-25 13:55 32.72282 -80.97947 34930 ft 477 kts 37°
2026-04-25 13:56 32.77408 -80.92943 34936 ft 477 kts 37°
2026-04-25 13:56 32.82534 -80.87941 34952 ft 474 kts 38°
2026-04-25 13:57 32.87640 -80.82938 34949 ft 476 kts 38°
2026-04-25 13:57 32.92756 -80.77916 34954 ft 476 kts 38°
2026-04-25 13:58 32.97872 -80.72890 34956 ft 477 kts 38°
2026-04-25 13:58 33.02953 -80.67893 34954 ft 477 kts 38°
2026-04-25 13:59 33.08065 -80.62858 34927 ft 477 kts 38°
2026-04-25 13:59 33.13180 -80.57813 34926 ft 477 kts 38°
2026-04-25 14:00 33.17424 -80.53620 34930 ft 477 kts 38°
2026-04-25 14:00 33.22529 -80.48571 34927 ft 475 kts 38°
2026-04-25 14:01 33.28443 -80.42711 34923 ft 475 kts 38°
2026-04-25 14:01 33.32707 -80.38479 34922 ft 476 kts 38°
2026-04-25 14:02 33.37769 -80.33447 34927 ft 476 kts 39°
2026-04-25 14:02 33.42862 -80.28376 34931 ft 476 kts 39°
2026-04-25 14:03 33.47955 -80.23298 34938 ft 476 kts 39°
2026-04-25 14:03 33.53045 -80.18213 34938 ft 476 kts 39°
2026-04-25 14:04 33.58140 -80.13115 34940 ft 476 kts 39°
2026-04-25 14:04 33.63366 -80.08245 34940 ft 475 kts 34°
2026-04-25 14:05 33.68933 -80.04078 34932 ft 474 kts 28°
2026-04-25 14:05 33.74797 -80.00437 34932 ft 474 kts 26°
2026-04-25 14:06 33.80692 -79.96862 34918 ft 474 kts 26°
2026-04-25 14:06 33.86595 -79.93271 34920 ft 476 kts 26°
2026-04-25 14:07 33.92496 -79.89671 34921 ft 476 kts 26°
2026-04-25 14:07 33.98358 -79.86086 34928 ft 476 kts 26°
2026-04-25 14:08 34.04260 -79.82471 34932 ft 476 kts 26°
2026-04-25 14:08 34.10165 -79.78846 34938 ft 477 kts 26°
2026-04-25 14:09 34.16081 -79.75210 34934 ft 477 kts 26°
2026-04-25 14:09 34.21996 -79.71573 34943 ft 477 kts 26°
2026-04-25 14:10 34.27872 -79.67951 34922 ft 477 kts 26°
2026-04-25 14:10 34.33823 -79.64274 34918 ft 478 kts 26°
2026-04-25 14:11 34.39769 -79.60597 34913 ft 478 kts 26°
2026-04-25 14:11 34.45657 -79.56951 34913 ft 478 kts 26°
2026-04-25 14:12 34.51585 -79.53272 34913 ft 478 kts 26°
2026-04-25 14:12 34.57493 -79.49542 34925 ft 480 kts 27°
2026-04-25 14:13 34.63325 -79.45588 34928 ft 480 kts 28°
2026-04-25 14:13 34.69158 -79.41630 34940 ft 480 kts 28°
2026-04-25 14:14 34.74953 -79.37717 34934 ft 479 kts 27°
2026-04-25 14:14 34.80788 -79.33771 34940 ft 480 kts 28°
2026-04-25 14:15 34.86629 -79.29811 34933 ft 481 kts 28°
2026-04-25 14:15 34.92472 -79.25843 34928 ft 481 kts 28°
2026-04-25 14:16 34.98311 -79.21870 34913 ft 481 kts 28°
2026-04-25 14:16 35.04151 -79.17890 34909 ft 482 kts 28°
2026-04-25 14:17 35.10008 -79.13892 34903 ft 482 kts 28°
2026-04-25 14:17 35.15828 -79.09913 34905 ft 483 kts 28°
2026-04-25 14:18 35.21688 -79.05899 34912 ft 483 kts 28°
2026-04-25 14:18 35.27537 -79.01882 34900 ft 482 kts 27°
2026-04-25 14:19 35.33398 -78.97855 34896 ft 483 kts 27°
2026-04-25 14:19 35.39261 -78.93819 34896 ft 484 kts 27°
2026-04-25 14:20 35.45128 -78.89773 34908 ft 484 kts 27°
2026-04-25 14:20 35.50956 -78.85750 34905 ft 484 kts 28°
2026-04-25 14:21 35.56823 -78.81690 34907 ft 484 kts 28°
2026-04-25 14:21 35.62779 -78.77562 34902 ft 484 kts 28°
2026-04-25 14:22 35.68642 -78.73496 34902 ft 484 kts 28°
2026-04-25 14:22 35.74510 -78.69412 34896 ft 486 kts 27°
2026-04-25 14:23 35.80357 -78.65341 34894 ft 485 kts 27°
2026-04-25 14:23 35.86234 -78.61243 34899 ft 485 kts 27°
2026-04-25 14:24 35.92106 -78.57139 34902 ft 485 kts 27°
2026-04-25 14:24 35.97977 -78.53024 34914 ft 486 kts 27°
2026-04-25 14:25 36.03859 -78.48898 34913 ft 487 kts 27°
2026-04-25 14:25 36.09749 -78.44762 34916 ft 487 kts 27°
2026-04-25 14:26 36.15595 -78.40647 34914 ft 487 kts 27°
2026-04-25 14:26 36.21483 -78.36487 34911 ft 487 kts 26°
2026-04-25 14:27 36.27382 -78.32324 34893 ft 488 kts 26°
2026-04-25 14:27 36.33300 -78.28197 34892 ft 487 kts 24°
2026-04-25 14:28 36.39439 -78.24703 34890 ft 484 kts 18°
2026-04-25 14:28 36.45806 -78.22039 34888 ft 482 kts 13°
2026-04-25 14:29 36.52197 -78.19733 34883 ft 481 kts 12°
2026-04-25 14:29 36.58636 -78.17419 34944 ft 482 kts 12°
2026-04-25 14:30 36.65071 -78.15091 34969 ft 482 kts 12°
2026-04-25 14:30 36.74737 -78.11576 34958 ft 483 kts 12°
2026-04-25 14:31 36.81141 -78.09244 34945 ft 483 kts 12°
2026-04-25 14:31 36.87591 -78.06890 34935 ft 483 kts 12°
2026-04-25 14:32 36.94051 -78.04525 34890 ft 484 kts 12°
2026-04-25 14:32 37.00516 -78.02158 34893 ft 484 kts 12°
2026-04-25 14:33 37.06938 -77.99802 34892 ft 484 kts 12°
2026-04-25 14:33 37.13406 -77.97419 34898 ft 485 kts 11°
2026-04-25 14:34 37.19887 -77.95032 34896 ft 485 kts 11°
2026-04-25 14:34 37.26349 -77.92649 34890 ft 484 kts 11°
2026-04-25 14:35 37.32805 -77.90263 34891 ft 484 kts 11°
2026-04-25 14:35 37.39221 -77.87883 34899 ft 484 kts 11°
2026-04-25 14:36 37.45683 -77.85486 34893 ft 484 kts 11°
2026-04-25 14:36 37.52154 -77.83009 34902 ft 486 kts 14°
2026-04-25 14:37 37.58485 -77.79905 34923 ft 490 kts 17°
2026-04-25 14:37 37.64784 -77.76592 34923 ft 491 kts 17°
2026-04-25 14:38 37.71042 -77.73294 34934 ft 491 kts 17°
2026-04-25 14:38 37.77346 -77.69969 34932 ft 491 kts 17°
2026-04-25 14:39 37.83647 -77.66641 34936 ft 491 kts 17°
2026-04-25 14:39 37.89947 -77.63309 34934 ft 491 kts 17°
2026-04-25 14:40 37.96249 -77.59969 34936 ft 491 kts 17°
2026-04-25 14:40 38.02507 -77.56721 34937 ft 485 kts 12°
2026-04-25 14:41 38.05765 -77.55816 34936 ft 475 kts
2026-04-25 14:41 38.09050 -77.55246 34932 ft 481 kts
2026-04-25 14:41 38.12257 -77.53922 34935 ft 490 kts 18°
2026-04-25 14:41 38.15268 -77.51815 34945 ft 498 kts 27°
2026-04-25 14:42 38.20135 -77.47910 34940 ft 496 kts 24°
2026-04-25 14:42 38.27266 -77.43399 34947 ft 490 kts 17°
2026-04-25 14:43 38.33548 -77.39874 34954 ft 493 kts 20°
2026-04-25 14:43 38.39486 -77.35383 34953 ft 500 kts 29°
2026-04-25 14:44 38.44924 -77.29749 34970 ft 507 kts 38°
2026-04-25 14:44 38.49778 -77.23167 34967 ft 510 kts 43°
2026-04-25 14:45 38.54428 -77.16386 34968 ft 510 kts 44°
2026-04-25 14:45 38.59114 -77.09565 34967 ft 510 kts 43°
2026-04-25 14:46 38.63813 -77.02742 34987 ft 510 kts 43°
2026-04-25 14:46 38.68500 -76.95928 34952 ft 510 kts 43°
2026-04-25 14:47 38.72397 -76.90256 34970 ft 510 kts 43°
2026-04-25 14:47 38.77869 -76.82273 34975 ft 509 kts 43°
2026-04-25 14:48 38.82505 -76.75503 34993 ft 508 kts 43°
2026-04-25 14:48 38.87167 -76.68675 34979 ft 508 kts 43°
2026-04-25 14:49 38.91820 -76.61841 35005 ft 508 kts 43°
2026-04-25 14:49 38.96472 -76.54992 35003 ft 508 kts 43°
2026-04-25 14:50 39.01084 -76.48186 34991 ft 507 kts 43°
2026-04-25 14:50 39.05708 -76.41344 35004 ft 506 kts 43°
2026-04-25 14:51 39.10330 -76.34495 35012 ft 506 kts 43°
2026-04-25 14:51 39.14948 -76.27637 35013 ft 506 kts 43°
2026-04-25 14:52 39.19558 -76.20770 35014 ft 506 kts 43°
2026-04-25 14:52 39.23385 -76.15055 35026 ft 506 kts 43°
2026-04-25 14:53 39.28726 -76.07075 35012 ft 504 kts 43°
2026-04-25 14:53 39.33366 -76.00139 35027 ft 504 kts 43°
2026-04-25 14:54 39.37946 -75.93269 35012 ft 504 kts 43°
2026-04-25 14:54 39.42523 -75.86381 35030 ft 504 kts 43°
2026-04-25 14:55 39.47093 -75.79490 35034 ft 504 kts 43°
2026-04-25 14:55 39.51656 -75.72588 35046 ft 504 kts 43°
2026-04-25 14:56 39.56184 -75.65729 35051 ft 504 kts 43°
2026-04-25 14:56 39.60738 -75.58811 35048 ft 504 kts 43°
2026-04-25 14:57 39.65275 -75.51868 35033 ft 505 kts 45°
2026-04-25 14:57 39.69532 -75.44552 35041 ft 508 kts 47°
2026-04-25 14:58 39.73699 -75.37109 35066 ft 508 kts 47°
2026-04-25 14:58 39.77826 -75.29731 35069 ft 507 kts 47°
2026-04-25 14:59 39.81982 -75.22300 35064 ft 507 kts 47°
2026-04-25 14:59 39.86134 -75.14860 35070 ft 507 kts 47°
2026-04-25 15:00 39.90277 -75.07416 35064 ft 507 kts 47°
2026-04-25 15:00 39.94382 -75.00017 35077 ft 505 kts 47°
2026-04-25 15:01 39.98431 -74.92528 35071 ft 506 kts 49°
2026-04-25 15:01 40.02340 -74.84882 35087 ft 506 kts 50°
2026-04-25 15:02 40.06234 -74.77209 35082 ft 506 kts 50°
2026-04-25 15:02 40.10127 -74.69532 35076 ft 506 kts 50°
2026-04-25 15:03 40.14016 -74.61850 35088 ft 506 kts 50°
2026-04-25 15:03 40.18030 -74.54404 35084 ft 501 kts 45°
2026-04-25 15:04 40.22599 -74.47586 35089 ft 495 kts 38°
2026-04-25 15:04 40.27655 -74.41537 35090 ft 489 kts 32°
2026-04-25 15:05 40.32922 -74.35914 35113 ft 488 kts 32°
2026-04-25 15:06 40.40810 -74.27505 35120 ft 486 kts 32°
2026-04-25 15:06 40.46054 -74.21877 35126 ft 486 kts 32°
2026-04-25 15:07 40.51252 -74.16277 35136 ft 486 kts 32°
2026-04-25 15:07 40.56490 -74.10629 35132 ft 486 kts 32°
2026-04-25 15:08 40.61720 -74.04980 35151 ft 486 kts 32°
2026-04-25 15:08 40.66939 -73.99320 35176 ft 486 kts 32°
2026-04-25 15:09 40.72140 -73.93663 35154 ft 483 kts 32°
2026-04-25 15:09 40.79916 -73.85287 35117 ft 481 kts 29°
2026-04-25 15:10 40.85409 -73.80351 35144 ft 474 kts 23°
2026-04-25 15:11 40.94143 -73.74556 35123 ft 463 kts 14°
2026-04-25 15:11 41.00118 -73.71613 35128 ft 461 kts 12°
2026-04-25 15:12 41.09186 -73.67304 35126 ft 462 kts 12°
2026-04-25 15:12 41.13229 -73.65370 35126 ft 462 kts 12°
2026-04-25 15:13 41.24277 -73.60194 35146 ft 456 kts
2026-04-25 15:14 41.30390 -73.58174 35144 ft 450 kts
2026-04-25 15:14 41.36508 -73.56986 35144 ft 445 kts 359°
2026-04-25 15:15 41.41669 -73.56277 35142 ft 445 kts 359°
2026-04-25 15:15 41.48831 -73.55316 35123 ft 445 kts 359°
2026-04-25 15:16 41.54992 -73.54485 35119 ft 445 kts 359°
2026-04-25 15:16 41.64232 -73.53231 35114 ft 445 kts 359°
2026-04-25 15:17 41.73435 -73.51977 35110 ft 445 kts 359°
2026-04-25 15:18 41.79598 -73.51135 35101 ft 445 kts 359°
2026-04-25 15:18 41.88842 -73.49869 35108 ft 445 kts 359°
2026-04-25 15:19 41.92920 -73.49309 35098 ft 445 kts 359°
2026-04-25 15:19 42.01164 -73.48176 35094 ft 445 kts 359°
2026-04-25 15:20 42.07280 -73.47333 35086 ft 445 kts 359°
2026-04-25 15:20 42.13436 -73.46482 35079 ft 445 kts 359°
2026-04-25 15:21 42.19589 -73.45630 35080 ft 445 kts 359°
2026-04-25 15:21 42.25748 -73.44776 35085 ft 445 kts 359°
2026-04-25 15:22 42.31899 -73.43922 35080 ft 445 kts 359°
2026-04-25 15:22 42.38012 -73.43071 35083 ft 445 kts 359°
2026-04-25 15:23 42.44169 -73.42211 35094 ft 445 kts 359°
2026-04-25 15:23 42.50329 -73.41350 35085 ft 445 kts 359°
2026-04-25 15:24 42.56496 -73.40486 35090 ft 445 kts 359°
2026-04-25 15:24 42.60579 -73.39914 35101 ft 445 kts 359°
2026-04-25 15:25 42.68806 -73.38755 35110 ft 446 kts 358°
2026-04-25 15:25 42.74980 -73.37886 35110 ft 446 kts 358°
2026-04-25 15:26 42.81151 -73.37013 35126 ft 446 kts 358°
2026-04-25 15:26 42.87336 -73.36136 35108 ft 447 kts 358°
2026-04-25 15:27 42.93521 -73.35256 35105 ft 447 kts 358°
2026-04-25 15:28 43.02814 -73.34017 35111 ft 446 kts 357°
2026-04-25 15:28 43.08959 -73.33407 35103 ft 446 kts 356°
2026-04-25 15:29 43.15147 -73.32785 35093 ft 446 kts 356°
2026-04-25 15:29 43.21342 -73.32148 35109 ft 447 kts 356°
2026-04-25 15:30 43.25501 -73.31716 35110 ft 447 kts 356°
2026-04-25 15:30 43.33752 -73.30855 35110 ft 447 kts 357°
2026-04-25 15:31 43.39910 -73.30209 35119 ft 447 kts 356°
2026-04-25 15:31 43.46096 -73.29556 35118 ft 444 kts 356°
2026-04-25 15:32 43.52251 -73.28907 35113 ft 444 kts 356°
2026-04-25 15:32 43.58405 -73.28260 35110 ft 443 kts 356°
2026-04-25 15:33 43.67594 -73.27287 35109 ft 443 kts 356°
2026-04-25 15:33 43.73745 -73.26633 35110 ft 444 kts 356°
2026-04-25 15:34 43.79905 -73.25976 35108 ft 444 kts 356°
2026-04-25 15:34 43.84022 -73.25535 35108 ft 444 kts 356°
2026-04-25 15:35 43.95383 -73.23812 35132 ft 460 kts
2026-04-25 15:36 44.04145 -73.17945 35107 ft 484 kts 29°
2026-04-25 15:36 44.08995 -73.11227 35105 ft 503 kts 45°
2026-04-25 15:37 44.13012 -73.03246 35132 ft 500 kts 47°
2026-04-25 15:37 44.16888 -72.95310 35134 ft 497 kts 47°
2026-04-25 15:38 44.20794 -72.87352 35142 ft 497 kts 47°
2026-04-25 15:38 44.24711 -72.79382 35149 ft 497 kts 47°
2026-04-25 15:39 44.28618 -72.71418 35157 ft 496 kts 47°
2026-04-25 15:39 44.32483 -72.63521 35144 ft 495 kts 47°
2026-04-25 15:40 44.35081 -72.58205 35144 ft 495 kts 47°
2026-04-25 15:40 44.40232 -72.47618 35146 ft 493 kts 47°
2026-04-25 15:41 44.44072 -72.39711 35137 ft 489 kts 47°
2026-04-25 15:41 44.47896 -72.31817 35128 ft 489 kts 47°
2026-04-25 15:42 44.51711 -72.23922 35129 ft 489 kts 47°
2026-04-25 15:42 44.55496 -72.16064 35134 ft 489 kts 47°
2026-04-25 15:43 44.59290 -72.08159 35129 ft 487 kts 47°
2026-04-25 15:43 44.63075 -72.00257 35127 ft 487 kts 47°
2026-04-25 15:44 44.66846 -71.92355 35139 ft 486 kts 47°
2026-04-25 15:44 44.70606 -71.84462 35127 ft 485 kts 47°
2026-04-25 15:45 44.74332 -71.76618 35136 ft 485 kts 47°
2026-04-25 15:45 44.76837 -71.71335 35139 ft 485 kts 47°
2026-04-25 15:46 44.81815 -71.60806 35141 ft 485 kts 47°
2026-04-25 15:46 44.85549 -71.52879 35175 ft 485 kts 47°
2026-04-25 15:47 44.89273 -71.44944 35145 ft 485 kts 47°
2026-04-25 15:47 44.92967 -71.37058 35174 ft 485 kts 47°
2026-04-25 15:48 44.96679 -71.29111 35130 ft 484 kts 47°
2026-04-25 15:48 45.00377 -71.21173 35176 ft 484 kts 47°
2026-04-25 15:49 45.03453 -71.14562 35155 ft 484 kts 47°
2026-04-25 15:49 45.07140 -71.06588 35145 ft 484 kts 47°
2026-04-25 15:50 45.11705 -70.97718 35139 ft 475 kts 41°
2026-04-25 15:50 45.15363 -70.91886 35139 ft 471 kts 38°
2026-04-25 15:51 45.19073 -70.86232 35138 ft 471 kts 38°
2026-04-25 15:51 45.24262 -70.78316 35140 ft 471 kts 38°
2026-04-25 15:52 45.28718 -70.71488 35161 ft 472 kts 38°
2026-04-25 15:52 45.33178 -70.64635 35164 ft 473 kts 38°
2026-04-25 15:53 45.37656 -70.57728 35139 ft 475 kts 38°
2026-04-25 15:53 45.42094 -70.50860 35138 ft 475 kts 39°
2026-04-25 15:54 45.46564 -70.43926 35134 ft 475 kts 39°
2026-04-25 15:54 45.51041 -70.36980 35144 ft 476 kts 39°
2026-04-25 15:55 45.55513 -70.29996 35140 ft 477 kts 39°
2026-04-25 15:55 45.59987 -70.22996 35135 ft 477 kts 39°
2026-04-25 15:56 45.64427 -70.16040 35163 ft 477 kts 41°
2026-04-25 15:56 45.68908 -70.09031 35139 ft 477 kts 41°
2026-04-25 15:57 45.73375 -70.01987 35136 ft 478 kts 41°
2026-04-25 15:57 45.77837 -69.94942 35148 ft 478 kts 41°
2026-04-25 15:58 45.82301 -69.87885 35142 ft 477 kts 42°
2026-04-25 15:58 45.86721 -69.80867 35132 ft 477 kts 42°
2026-04-25 15:59 45.91162 -69.73797 35125 ft 477 kts 42°
2026-04-25 15:59 45.95605 -69.66711 35128 ft 477 kts 42°
2026-04-25 16:00 45.99292 -69.60823 35130 ft 476 kts 43°
2026-04-25 16:00 46.04429 -69.52587 35126 ft 476 kts 43°
2026-04-25 16:01 46.08849 -69.45481 35123 ft 476 kts 43°
2026-04-25 16:01 46.13266 -69.38366 35142 ft 476 kts 43°
2026-04-25 16:02 46.17674 -69.31253 35123 ft 475 kts 44°
2026-04-25 16:02 46.22072 -69.24123 35118 ft 475 kts 44°
2026-04-25 16:03 46.26463 -69.16989 35116 ft 475 kts 44°
2026-04-25 16:03 46.30828 -69.09892 35123 ft 474 kts 44°
2026-04-25 16:04 46.35205 -69.02745 35111 ft 474 kts 44°
2026-04-25 16:04 46.39573 -68.95590 35110 ft 474 kts 44°
2026-04-25 16:05 46.43943 -68.88417 35094 ft 474 kts 44°
2026-04-25 16:06 46.50455 -68.77705 35114 ft 473 kts 45°
2026-04-25 16:06 46.54802 -68.70519 35115 ft 473 kts 45°
2026-04-25 16:07 46.59149 -68.63315 35116 ft 473 kts 45°
2026-04-25 16:07 46.63490 -68.56119 35123 ft 472 kts 46°
2026-04-25 16:08 46.67807 -68.48930 35120 ft 471 kts 46°
2026-04-25 16:08 46.72083 -68.41784 35105 ft 471 kts 46°
2026-04-25 16:09 46.76389 -68.34576 35123 ft 471 kts 46°
2026-04-25 16:09 46.80697 -68.27345 35096 ft 472 kts 46°
2026-04-25 16:10 46.85003 -68.20099 35078 ft 472 kts 46°
2026-04-25 16:10 46.89301 -68.12845 35066 ft 472 kts 47°
2026-04-25 16:11 46.93594 -68.05582 35069 ft 472 kts 47°
2026-04-25 16:11 46.97843 -67.98380 35069 ft 469 kts 47°
2026-04-25 16:12 47.02101 -67.91135 35077 ft 469 kts 47°
2026-04-25 16:12 47.06354 -67.83881 35085 ft 469 kts 47°
2026-04-25 16:13 47.10603 -67.76615 35098 ft 469 kts 47°
2026-04-25 16:13 47.14808 -67.69405 35093 ft 467 kts 47°
2026-04-25 16:14 47.19028 -67.62150 35092 ft 466 kts 47°
2026-04-25 16:14 47.23242 -67.54884 35090 ft 467 kts 47°
2026-04-25 16:15 47.27449 -67.47613 35108 ft 465 kts 48°
2026-04-25 16:15 47.31636 -67.40351 35098 ft 464 kts 48°
2026-04-25 16:16 47.35784 -67.33136 35084 ft 464 kts 48°
2026-04-25 16:16 47.39901 -67.25784 35087 ft 465 kts 50°
2026-04-25 16:17 47.43912 -67.18293 35087 ft 465 kts 50°
2026-04-25 16:17 47.47919 -67.10787 35085 ft 465 kts 50°
2026-04-25 16:18 47.51907 -67.03312 35083 ft 464 kts 50°
2026-04-25 16:18 47.55910 -66.95797 35084 ft 465 kts 50°
2026-04-25 16:19 47.59911 -66.88267 35082 ft 465 kts 50°
2026-04-25 16:19 47.63920 -66.80699 35085 ft 467 kts 50°
2026-04-25 16:20 47.69945 -66.69409 35082 ft 466 kts 46°
2026-04-25 16:21 47.76164 -66.58285 35090 ft 467 kts 51°
2026-04-25 16:21 47.80042 -66.50514 35081 ft 468 kts 51°
2026-04-25 16:22 47.83958 -66.42770 35078 ft 468 kts 51°
2026-04-25 16:22 47.87886 -66.35121 35074 ft 468 kts 50°
2026-04-25 16:23 47.91856 -66.27438 35079 ft 467 kts 50°
2026-04-25 16:23 47.95827 -66.19762 35073 ft 467 kts 50°
2026-04-25 16:24 47.99795 -66.12079 35066 ft 467 kts 50°
2026-04-25 16:24 48.03754 -66.04397 35065 ft 467 kts 50°
2026-04-25 16:25 48.07682 -65.96753 35050 ft 467 kts 50°
2026-04-25 16:25 48.11630 -65.89047 35048 ft 466 kts 50°
2026-04-25 16:26 48.15574 -65.81334 35061 ft 466 kts 50°
2026-04-25 16:26 48.19513 -65.73606 35047 ft 466 kts 51°
2026-04-25 16:27 48.23447 -65.65865 35043 ft 466 kts 51°
2026-04-25 16:27 48.27347 -65.58158 35043 ft 467 kts 51°
2026-04-25 16:28 48.31284 -65.50374 35045 ft 468 kts 50°
2026-04-25 16:28 48.35213 -65.42576 35045 ft 467 kts 51°
2026-04-25 16:29 48.39136 -65.34768 35047 ft 467 kts 51°
2026-04-25 16:29 48.43025 -65.27002 35039 ft 467 kts 50°
2026-04-25 16:30 48.46936 -65.19177 35037 ft 467 kts 51°
2026-04-25 16:30 48.50844 -65.11330 35038 ft 468 kts 51°
2026-04-25 16:31 48.54744 -65.03478 35042 ft 468 kts 51°
2026-04-25 16:31 48.58634 -64.95614 35059 ft 465 kts 51°
2026-04-25 16:32 48.62458 -64.87869 35039 ft 461 kts 51°
2026-04-25 16:32 48.66294 -64.80081 35040 ft 461 kts 51°
2026-04-25 16:33 48.70121 -64.72288 35050 ft 461 kts 51°
2026-04-25 16:33 48.73944 -64.64479 35055 ft 460 kts 51°
2026-04-25 16:34 48.77721 -64.56739 35051 ft 459 kts 51°
2026-04-25 16:34 48.81520 -64.48933 35049 ft 459 kts 51°
2026-04-25 16:35 48.85312 -64.41118 35048 ft 459 kts 51°
2026-04-25 16:35 48.89098 -64.33294 35047 ft 459 kts 51°
2026-04-25 16:36 48.92857 -64.25499 35047 ft 460 kts 51°
2026-04-25 16:36 48.96654 -64.17608 35033 ft 460 kts 51°
2026-04-25 16:37 49.00428 -64.09738 35024 ft 460 kts 51°
2026-04-25 16:37 49.04202 -64.01841 35032 ft 461 kts 51°
2026-04-25 16:38 49.07983 -63.93912 35023 ft 463 kts 51°
2026-04-25 16:38 49.11740 -63.86006 35004 ft 463 kts 51°
2026-04-25 16:39 49.15518 -63.78033 35002 ft 463 kts 51°
2026-04-25 16:39 49.19290 -63.70050 35001 ft 463 kts 51°
2026-04-25 16:40 49.23054 -63.62064 34998 ft 461 kts 51°
2026-04-25 16:40 49.26774 -63.54142 34995 ft 461 kts 51°
2026-04-25 16:41 49.30512 -63.46162 34985 ft 461 kts 51°
2026-04-25 16:41 49.36107 -63.34170 34984 ft 460 kts 52°
2026-04-25 16:42 49.39818 -63.26184 34987 ft 457 kts 52°
2026-04-25 16:42 49.43480 -63.18284 34987 ft 456 kts 52°
2026-04-25 16:43 49.47158 -63.10325 34994 ft 456 kts 51°
2026-04-25 16:43 49.50830 -63.02352 34981 ft 456 kts 51°
2026-04-25 16:44 49.54500 -62.94373 34967 ft 458 kts 52°
2026-04-25 16:44 49.58186 -62.86330 34977 ft 460 kts 52°
2026-04-25 16:45 49.61844 -62.78313 34987 ft 460 kts 52°
2026-04-25 16:45 49.65521 -62.70234 34959 ft 460 kts 52°
2026-04-25 16:46 49.69195 -62.62139 34961 ft 460 kts 52°
2026-04-25 16:46 49.71622 -62.56780 34959 ft 459 kts 52°
2026-04-25 16:47 49.76492 -62.45986 34951 ft 459 kts 52°
2026-04-25 16:47 49.80143 -62.37868 34942 ft 459 kts 52°
2026-04-25 16:48 49.83788 -62.29737 34936 ft 459 kts 52°
2026-04-25 16:48 49.87424 -62.21603 34935 ft 458 kts 52°
2026-04-25 16:49 49.91044 -62.13478 34949 ft 458 kts 52°
2026-04-25 16:49 49.94639 -62.05385 34927 ft 458 kts 52°
2026-04-25 16:50 49.98251 -61.97229 34918 ft 458 kts 53°
2026-04-25 16:50 50.01859 -61.89058 34911 ft 458 kts 53°
2026-04-25 16:51 50.05461 -61.80873 34908 ft 458 kts 53°
2026-04-25 16:51 50.08450 -61.74062 34910 ft 458 kts 53°
2026-04-25 16:52 50.12648 -61.64468 34909 ft 458 kts 53°
2026-04-25 16:52 50.16211 -61.56297 34909 ft 458 kts 53°
2026-04-25 16:53 50.19807 -61.48031 35268 ft 460 kts 53°
2026-04-25 16:53 50.21597 -61.43903 35686 ft 457 kts 53°
2026-04-25 16:53 50.23378 -61.39790 36027 ft 457 kts 53°
2026-04-25 16:54 50.25159 -61.35670 36279 ft 458 kts 53°
2026-04-25 16:54 50.26943 -61.31538 36521 ft 459 kts 54°
2026-04-25 16:54 50.28705 -61.27450 36749 ft 459 kts 54°
2026-04-25 16:54 50.30492 -61.23296 36891 ft 460 kts 54°
2026-04-25 16:55 50.32290 -61.19110 36889 ft 460 kts 54°
2026-04-25 16:55 50.35846 -61.10811 36901 ft 458 kts 54°
2026-04-25 16:56 50.39397 -61.02500 36896 ft 458 kts 54°
2026-04-25 16:56 50.42939 -60.94179 36897 ft 458 kts 54°
2026-04-25 16:57 50.46475 -60.85848 36899 ft 458 kts 54°
2026-04-25 16:57 50.49982 -60.77563 36899 ft 458 kts 54°
2026-04-25 16:58 50.53500 -60.69221 36897 ft 457 kts 54°
2026-04-25 16:58 50.57011 -60.60874 36901 ft 457 kts 54°
2026-04-25 16:59 50.60515 -60.52513 36900 ft 457 kts 54°
2026-04-25 16:59 50.64014 -60.44140 36903 ft 457 kts 54°
2026-04-25 17:00 50.67473 -60.35834 36905 ft 454 kts 54°
2026-04-25 17:00 50.70936 -60.27491 36894 ft 454 kts 55°
2026-04-25 17:01 50.74393 -60.19140 36897 ft 454 kts 55°
2026-04-25 17:01 50.77844 -60.10775 36896 ft 454 kts 55°
2026-04-25 17:02 50.81287 -60.02400 36902 ft 453 kts 55°
2026-04-25 17:02 50.84711 -59.94045 36899 ft 452 kts 55°
2026-04-25 17:03 50.88105 -59.85738 36883 ft 452 kts 55°
2026-04-25 17:03 50.91516 -59.77363 36883 ft 452 kts 55°
2026-04-25 17:04 50.94922 -59.68976 36885 ft 452 kts 55°
2026-04-25 17:04 50.98321 -59.60578 36887 ft 452 kts 55°
2026-04-25 17:05 51.01716 -59.52159 36883 ft 453 kts 56°
2026-04-25 17:05 51.06775 -59.39563 36869 ft 452 kts 56°
2026-04-25 17:06 51.10156 -59.31111 36872 ft 452 kts 56°
2026-04-25 17:06 51.13532 -59.22656 36870 ft 452 kts 56°
2026-04-25 17:07 51.16899 -59.14183 36868 ft 452 kts 56°
2026-04-25 17:07 51.20237 -59.05752 36884 ft 453 kts 56°
2026-04-25 17:08 51.23593 -58.97248 36863 ft 453 kts 56°
2026-04-25 17:08 51.26950 -58.88719 36855 ft 453 kts 56°
2026-04-25 17:09 51.30299 -58.80193 36850 ft 452 kts 57°
2026-04-25 17:09 51.33660 -58.71589 36860 ft 451 kts 57°
2026-04-25 17:10 51.36958 -58.63122 36853 ft 451 kts 57°
2026-04-25 17:10 51.40274 -58.54587 36840 ft 452 kts 57°
2026-04-25 17:11 51.43590 -58.46026 36839 ft 451 kts 57°
2026-04-25 17:11 51.46893 -58.37466 36840 ft 451 kts 57°
2026-04-25 17:12 51.50188 -58.28890 36843 ft 451 kts 57°
2026-04-25 17:12 51.53474 -58.20314 36846 ft 450 kts 57°
2026-04-25 17:13 51.55645 -58.14632 36829 ft 451 kts 57°
2026-04-25 17:13 51.60002 -58.03192 36827 ft 451 kts 58°
2026-04-25 17:14 51.63270 -57.94579 36845 ft 451 kts 58°
2026-04-25 17:14 51.66541 -57.85925 36833 ft 451 kts 58°
2026-04-25 17:15 51.69809 -57.77256 36829 ft 452 kts 58°
2026-04-25 17:15 51.73048 -57.68631 36821 ft 452 kts 58°
2026-04-25 17:16 51.76297 -57.59954 36820 ft 450 kts 58°
2026-04-25 17:16 51.79529 -57.51287 36826 ft 450 kts 58°
2026-04-25 17:17 51.82756 -57.42607 36826 ft 450 kts 58°
2026-04-25 17:17 51.85977 -57.33912 36833 ft 451 kts 58°
2026-04-25 17:18 51.89197 -57.25191 36814 ft 450 kts 58°
2026-04-25 17:18 51.92387 -57.16522 36823 ft 451 kts 58°
2026-04-25 17:19 51.95590 -57.07785 36824 ft 451 kts 58°
2026-04-25 17:19 51.98785 -56.99042 36831 ft 450 kts 58°
2026-04-25 17:20 52.01972 -56.90291 36835 ft 450 kts 58°
2026-04-25 17:20 52.05136 -56.81574 36842 ft 452 kts 58°
2026-04-25 17:21 52.08337 -56.72723 36831 ft 454 kts 59°
2026-04-25 17:21 52.11535 -56.63847 36838 ft 454 kts 59°
2026-04-25 17:22 52.13674 -56.57893 36844 ft 454 kts 59°
2026-04-25 17:22 52.17919 -56.46036 36845 ft 455 kts 59°
2026-04-25 17:23 52.21100 -56.37114 36820 ft 455 kts 59°
2026-04-25 17:23 52.24258 -56.28221 36827 ft 456 kts 59°
2026-04-25 17:24 52.27434 -56.19248 36814 ft 456 kts 59°
2026-04-25 17:24 52.30600 -56.10263 36811 ft 456 kts 59°
2026-04-25 17:25 52.33759 -56.01266 36800 ft 456 kts 59°
2026-04-25 17:25 52.36792 -55.92226 36794 ft 456 kts 63°
2026-04-25 17:26 52.39324 -55.82675 36801 ft 457 kts 68°
2026-04-25 17:26 52.41262 -55.72735 36821 ft 458 kts 73°
2026-04-25 17:27 52.42666 -55.62531 36807 ft 458 kts 76°
2026-04-25 17:27 52.43532 -55.55752 36793 ft 459 kts 76°
2026-04-25 17:28 52.45259 -55.42033 36788 ft 457 kts 76°
2026-04-25 17:28 52.46526 -55.31874 36775 ft 457 kts 76°
2026-04-25 17:29 52.47794 -55.21644 36754 ft 457 kts 77°
2026-04-25 17:29 52.49068 -55.11303 36754 ft 457 kts 77°
2026-04-25 17:30 52.50317 -55.01073 36748 ft 456 kts 77°
2026-04-25 17:30 52.51550 -54.90895 36733 ft 457 kts 77°
2026-04-25 17:31 52.52785 -54.80632 36724 ft 457 kts 77°
2026-04-25 17:31 52.54007 -54.70376 36708 ft 456 kts 77°
2026-04-25 17:32 52.55184 -54.60436 36708 ft 457 kts 77°
2026-04-25 17:32 52.56393 -54.50158 36708 ft 457 kts 77°
2026-04-25 17:33 52.57583 -54.39938 36696 ft 457 kts 77°
2026-04-25 17:33 52.58771 -54.29654 36696 ft 456 kts 77°
2026-04-25 17:34 52.59955 -54.19356 36702 ft 458 kts 77°
2026-04-25 17:34 52.61131 -54.09022 36682 ft 459 kts 78°
2026-04-25 17:35 52.62295 -53.98680 36680 ft 458 kts 78°
2026-04-25 17:35 52.63454 -53.88331 36679 ft 459 kts 78°
2026-04-25 17:36 52.64596 -53.78037 36665 ft 459 kts 78°
2026-04-25 17:36 52.65737 -53.67665 36664 ft 459 kts 78°
2026-04-25 17:37 52.66873 -53.57276 36665 ft 460 kts 78°
2026-04-25 17:37 52.68000 -53.46886 36661 ft 460 kts 78°
2026-04-25 17:38 52.68740 -53.39993 36657 ft 460 kts 78°
2026-04-25 17:38 52.70221 -53.26068 36655 ft 460 kts 78°
2026-04-25 17:39 52.71312 -53.15717 36640 ft 460 kts 78°
2026-04-25 17:39 52.72400 -53.05294 36640 ft 460 kts 79°
2026-04-25 17:40 52.73481 -52.94859 36644 ft 461 kts 79°
2026-04-25 17:40 52.74553 -52.84416 36628 ft 460 kts 79°
2026-04-25 17:41 52.75608 -52.74032 36640 ft 461 kts 79°
2026-04-25 17:41 52.76664 -52.63565 36631 ft 461 kts 79°
2026-04-25 17:42 52.77710 -52.53084 36618 ft 461 kts 79°
2026-04-25 17:42 52.78745 -52.42622 36616 ft 460 kts 79°
2026-04-25 17:43 52.79769 -52.32153 36619 ft 460 kts 79°
2026-04-25 17:43 52.80780 -52.21761 36601 ft 460 kts 79°
2026-04-25 17:44 52.81783 -52.11312 36604 ft 459 kts 80°
2026-04-25 17:44 52.82778 -52.00846 36606 ft 460 kts 80°
2026-04-25 17:45 52.83442 -51.93825 36604 ft 462 kts 80°
2026-04-25 17:45 52.84747 -51.79850 36596 ft 460 kts 80°
2026-04-25 17:46 52.85717 -51.69347 36600 ft 460 kts 80°
2026-04-25 17:46 52.86673 -51.58914 36592 ft 460 kts 80°
2026-04-25 17:47 52.87625 -51.48423 36600 ft 459 kts 80°
2026-04-25 17:47 52.88565 -51.37943 36591 ft 459 kts 80°
2026-04-25 17:48 52.89957 -51.22225 36583 ft 459 kts 81°
2026-04-25 17:49 52.90868 -51.11807 36587 ft 460 kts 81°
2026-04-25 17:49 52.91776 -51.01305 36576 ft 460 kts 81°
2026-04-25 17:50 52.92676 -50.90788 36570 ft 460 kts 81°
2026-04-25 17:50 52.93566 -50.80269 36567 ft 459 kts 81°
2026-04-25 17:51 52.94296 -50.71541 36565 ft 458 kts 81°
2026-04-25 17:51 52.95166 -50.61037 36576 ft 458 kts 81°
2026-04-25 17:52 52.96165 -50.48825 36576 ft 458 kts 81°
2026-04-25 17:52 52.96874 -50.40085 36573 ft 458 kts 81°
2026-04-25 17:53 52.97716 -50.29558 36568 ft 460 kts 82°
2026-04-25 17:53 52.98549 -50.19019 36553 ft 460 kts 82°
2026-04-25 17:54 52.99371 -50.08478 36554 ft 460 kts 82°
2026-04-25 17:54 53.00370 -49.97980 36558 ft 461 kts 78°
2026-04-25 17:55 53.01809 -49.87677 36570 ft 460 kts 76°
2026-04-25 17:55 53.03296 -49.77332 36556 ft 460 kts 76°
2026-04-25 17:56 53.04774 -49.66976 36560 ft 459 kts 76°
2026-04-25 17:56 53.06244 -49.56613 36557 ft 460 kts 77°
2026-04-25 17:57 53.07701 -49.46230 36544 ft 459 kts 77°
2026-04-25 17:57 53.09140 -49.35908 36545 ft 461 kts 77°
2026-04-25 17:58 53.10581 -49.25494 36545 ft 460 kts 77°
2026-04-25 17:58 53.12014 -49.15074 36540 ft 461 kts 77°
2026-04-25 17:59 53.13440 -49.04638 36532 ft 461 kts 77°
2026-04-25 17:59 53.14846 -48.94271 36544 ft 460 kts 77°
2026-04-25 18:00 53.16249 -48.83847 36547 ft 460 kts 77°
2026-04-25 18:00 53.17647 -48.73404 36545 ft 461 kts 78°
2026-04-25 18:01 53.19036 -48.62934 36548 ft 462 kts 78°
2026-04-25 18:01 53.20417 -48.52451 36542 ft 463 kts 78°
2026-04-25 18:02 53.21782 -48.42015 36530 ft 463 kts 78°
2026-04-25 18:02 53.23147 -48.31503 36538 ft 463 kts 78°
2026-04-25 18:03 53.24502 -48.20987 36547 ft 463 kts 78°
2026-04-25 18:03 53.25849 -48.10453 36548 ft 464 kts 78°
2026-04-25 18:04 53.27177 -47.99989 36542 ft 463 kts 78°
2026-04-25 18:04 53.28505 -47.89458 36538 ft 463 kts 78°
2026-04-25 18:05 53.29827 -47.78909 36548 ft 464 kts 79°
2026-04-25 18:05 53.31136 -47.68346 36542 ft 464 kts 79°
2026-04-25 18:06 53.32428 -47.57847 36542 ft 464 kts 79°
2026-04-25 18:06 53.33721 -47.47260 36545 ft 464 kts 79°
2026-04-25 18:07 53.35005 -47.36665 36548 ft 464 kts 79°
2026-04-25 18:07 53.36281 -47.26064 36534 ft 464 kts 79°
2026-04-25 18:08 53.37548 -47.15447 36546 ft 464 kts 79°
2026-04-25 18:08 53.38804 -47.04823 36549 ft 464 kts 80°
2026-04-25 18:09 53.40043 -46.94266 36543 ft 465 kts 80°
2026-04-25 18:09 53.41286 -46.83592 36538 ft 466 kts 80°
2026-04-25 18:10 53.42520 -46.72907 36556 ft 466 kts 80°
2026-04-25 18:10 53.43744 -46.62220 36544 ft 466 kts 80°
2026-04-25 18:11 53.44951 -46.51592 36554 ft 466 kts 80°
2026-04-25 18:11 53.46156 -46.40884 36552 ft 466 kts 80°
2026-04-25 18:12 53.47352 -46.30177 36555 ft 466 kts 80°
2026-04-25 18:12 53.48538 -46.19460 36541 ft 466 kts 80°
2026-04-25 18:13 53.49716 -46.08737 36544 ft 466 kts 81°
2026-04-25 18:13 53.50887 -45.97993 36554 ft 467 kts 81°
2026-04-25 18:14 53.52613 -45.81926 36558 ft 467 kts 81°
2026-04-25 18:14 53.53759 -45.71155 36555 ft 467 kts 81°
2026-04-25 18:15 53.54894 -45.60381 36562 ft 467 kts 81°
2026-04-25 18:15 53.56021 -45.49595 36545 ft 467 kts 81°
2026-04-25 18:16 53.57140 -45.38803 36555 ft 468 kts 81°
2026-04-25 18:17 53.58790 -45.22671 36569 ft 468 kts 82°
2026-04-25 18:17 53.59884 -45.11865 36577 ft 468 kts 82°
2026-04-25 18:18 53.60969 -45.01042 36572 ft 468 kts 82°
2026-04-25 18:18 53.62042 -44.90218 36571 ft 468 kts 82°
2026-04-25 18:19 53.63100 -44.79456 36577 ft 469 kts 82°
2026-04-25 18:19 53.64155 -44.68609 36578 ft 469 kts 82°
2026-04-25 18:20 53.65202 -44.57746 36584 ft 469 kts 82°
2026-04-25 18:20 53.66239 -44.46884 36584 ft 469 kts 83°
2026-04-25 18:21 53.67266 -44.36014 36593 ft 469 kts 83°
2026-04-25 18:21 53.68277 -44.25211 36577 ft 469 kts 83°
2026-04-25 18:22 53.69290 -44.14301 36598 ft 471 kts 83°
2026-04-25 18:22 53.70291 -44.03355 36593 ft 472 kts 83°
2026-04-25 18:23 53.71284 -43.92392 36595 ft 472 kts 83°
2026-04-25 18:23 53.72268 -43.81422 36603 ft 472 kts 83°
2026-04-25 18:24 53.73235 -43.70524 36605 ft 472 kts 83°
2026-04-25 18:24 53.74200 -43.59555 36612 ft 471 kts 84°
2026-04-25 18:25 53.75154 -43.48557 36604 ft 471 kts 84°
2026-04-25 18:25 53.76096 -43.37590 36612 ft 471 kts 84°
2026-04-25 18:26 53.77029 -43.26615 36619 ft 471 kts 84°
2026-04-25 18:26 53.77959 -43.15588 36628 ft 474 kts 84°
2026-04-25 18:27 53.78869 -43.04607 36598 ft 474 kts 85°
2026-04-25 18:27 53.79776 -42.93555 36626 ft 474 kts 85°
2026-04-25 18:28 53.80673 -42.82486 36632 ft 474 kts 85°
2026-04-25 18:28 53.81560 -42.71422 36633 ft 474 kts 85°
2026-04-25 18:29 53.82866 -42.54884 36645 ft 474 kts 85°
2026-04-25 18:30 53.84584 -42.32680 36643 ft 474 kts 85°
2026-04-25 18:30 53.85419 -42.21676 36647 ft 474 kts 85°
2026-04-25 18:31 53.86250 -42.10582 36653 ft 474 kts 85°
2026-04-25 18:31 53.87071 -41.99486 36654 ft 474 kts 86°
2026-04-25 18:32 53.87882 -41.88395 36664 ft 474 kts 86°
2026-04-25 18:32 53.88682 -41.77290 36653 ft 474 kts 86°
2026-04-25 18:33 53.89468 -41.66250 36665 ft 474 kts 86°
2026-04-25 18:33 53.90249 -41.55121 36667 ft 474 kts 86°
2026-04-25 18:34 53.91019 -41.43999 36676 ft 474 kts 86°
2026-04-25 18:34 53.91787 -41.32806 36674 ft 474 kts 86°
2026-04-25 18:35 53.92531 -41.21740 36675 ft 475 kts 87°
2026-04-25 18:35 53.93269 -41.10580 36682 ft 476 kts 87°
2026-04-25 18:36 53.94002 -40.99390 36678 ft 476 kts 87°
2026-04-25 18:36 53.94723 -40.88200 36688 ft 476 kts 87°
2026-04-25 18:37 53.95434 -40.77009 36694 ft 476 kts 87°
2026-04-25 18:37 53.96135 -40.65814 36703 ft 476 kts 87°
2026-04-25 18:38 53.96820 -40.54695 36700 ft 476 kts 87°
2026-04-25 18:38 53.97500 -40.43492 36701 ft 476 kts 88°
2026-04-25 18:39 53.98169 -40.32287 36706 ft 476 kts 88°
2026-04-25 18:39 53.98824 -40.21083 36707 ft 476 kts 88°
2026-04-25 18:40 53.99464 -40.09948 36707 ft 476 kts 88°
2026-04-25 18:40 54.00095 -39.98739 36704 ft 476 kts 88°
2026-04-25 18:41 54.00581 -39.87503 36707 ft 476 kts 90°
2026-04-25 18:41 54.01021 -39.76244 36710 ft 476 kts 90°
2026-04-25 18:42 54.01381 -39.66889 36718 ft 476 kts 90°
2026-04-25 18:42 54.01879 -39.53800 36720 ft 476 kts 90°
2026-04-25 18:43 54.02299 -39.42529 36727 ft 477 kts 90°
2026-04-25 18:43 54.02708 -39.31248 36704 ft 477 kts 90°
2026-04-25 18:44 54.03105 -39.20011 36728 ft 479 kts 90°
2026-04-25 18:44 54.03495 -39.08696 36741 ft 479 kts 90°
2026-04-25 18:45 54.03874 -38.97373 36735 ft 478 kts 90°
2026-04-25 18:45 54.04242 -38.86050 36738 ft 478 kts 90°
2026-04-25 18:46 54.04600 -38.74731 36738 ft 478 kts 90°
2026-04-25 18:46 54.04947 -38.63402 36742 ft 480 kts 90°
2026-04-25 18:47 54.05285 -38.52025 36740 ft 481 kts 91°
2026-04-25 18:47 54.05611 -38.40712 36757 ft 481 kts 91°
2026-04-25 18:48 54.05928 -38.29313 36755 ft 481 kts 91°
2026-04-25 18:48 54.06234 -38.17924 36754 ft 481 kts 91°
2026-04-25 18:49 54.06529 -38.06528 36765 ft 481 kts 91°
2026-04-25 18:49 54.06814 -37.95103 36758 ft 483 kts 91°
2026-04-25 18:50 54.07089 -37.83642 36772 ft 484 kts 91°
2026-04-25 18:50 54.07352 -37.72249 36769 ft 484 kts 91°
2026-04-25 18:51 54.07566 -37.62638 36775 ft 484 kts 91°
2026-04-25 18:51 54.07849 -37.49295 36783 ft 484 kts 91°
2026-04-25 18:52 54.08081 -37.37812 36761 ft 485 kts 91°
2026-04-25 18:52 54.08301 -37.26375 36782 ft 486 kts 91°
2026-04-25 18:53 54.08512 -37.14841 36777 ft 486 kts 92°
2026-04-25 18:53 54.08712 -37.03309 36796 ft 486 kts 92°
2026-04-25 18:54 54.08992 -36.86009 36805 ft 486 kts 92°
2026-04-25 18:55 54.09163 -36.74544 36774 ft 487 kts 92°
2026-04-25 18:55 54.09324 -36.62976 36793 ft 489 kts 92°
2026-04-25 18:56 54.09476 -36.51382 36804 ft 489 kts 92°
2026-04-25 18:56 54.09616 -36.39784 36803 ft 489 kts 92°
2026-04-25 18:57 54.09745 -36.28182 36809 ft 489 kts 92°
2026-04-25 18:57 54.09862 -36.16664 36813 ft 489 kts 92°
2026-04-25 18:58 54.09967 -36.05050 36812 ft 491 kts 92°
2026-04-25 18:58 54.10107 -35.87557 36818 ft 492 kts 92°
2026-04-25 18:59 54.10255 -35.64315 36826 ft 491 kts 93°
2026-04-25 19:00 54.10335 -35.46819 36828 ft 492 kts 93°
2026-04-25 19:01 54.10388 -35.29260 36843 ft 494 kts 93°
2026-04-25 19:01 54.10412 -35.17618 36843 ft 494 kts 93°
2026-04-25 19:02 54.10426 -35.00034 36848 ft 494 kts 93°
2026-04-25 19:03 54.10418 -34.86332 36841 ft 494 kts 93°
2026-04-25 19:03 54.10387 -34.70772 36856 ft 496 kts 93°
2026-04-25 19:04 54.10334 -34.53099 36862 ft 496 kts 93°
2026-04-25 19:05 54.10220 -34.29536 36870 ft 496 kts 94°
2026-04-25 19:06 54.10145 -34.17755 36872 ft 496 kts 94°
2026-04-25 19:06 54.10013 -34.00173 36872 ft 496 kts 94°
2026-04-25 19:07 54.09853 -33.82502 36874 ft 497 kts 94°
2026-04-25 19:08 54.09669 -33.64913 36876 ft 497 kts 94°
2026-04-25 19:09 54.09405 -33.43325 36879 ft 498 kts 94°
2026-04-25 19:10 54.09135 -33.23597 36885 ft 498 kts 94°
2026-04-25 19:10 54.08958 -33.11860 36887 ft 498 kts 94°
2026-04-25 19:11 54.08767 -33.00043 36890 ft 498 kts 94°
2026-04-25 19:11 54.08565 -32.88230 36890 ft 498 kts 94°
2026-04-25 19:12 54.08349 -32.76411 36898 ft 499 kts 94°
2026-04-25 19:12 54.08125 -32.64592 36898 ft 499 kts 94°
2026-04-25 19:13 54.07891 -32.52853 36898 ft 499 kts 94°
2026-04-25 19:13 54.07643 -32.41029 36903 ft 499 kts 94°
2026-04-25 19:14 54.07384 -32.29211 36902 ft 499 kts 95°
2026-04-25 19:14 54.07110 -32.17397 36892 ft 499 kts 94°
2026-04-25 19:15 54.06826 -32.05550 36904 ft 500 kts 95°
2026-04-25 19:15 54.06534 -31.93782 36914 ft 500 kts 95°
2026-04-25 19:16 54.06227 -31.81930 36909 ft 500 kts 95°
2026-04-25 19:16 54.05909 -31.70083 36915 ft 500 kts 95°
2026-04-25 19:17 54.05577 -31.58235 36908 ft 500 kts 95°
2026-04-25 19:17 54.05233 -31.46375 36916 ft 501 kts 95°
2026-04-25 19:18 54.04882 -31.34579 36916 ft 501 kts 95°
2026-04-25 19:18 54.04516 -31.22712 36906 ft 502 kts 95°
2026-04-25 19:19 54.04138 -31.10834 36919 ft 502 kts 95°
2026-04-25 19:19 54.03748 -30.98964 36927 ft 502 kts 95°
2026-04-25 19:20 54.03412 -30.89087 36923 ft 503 kts 95°
2026-04-25 19:20 54.02932 -30.75257 36927 ft 503 kts 95°
2026-04-25 19:21 54.02506 -30.63351 36935 ft 503 kts 95°
2026-04-25 19:21 54.01850 -30.45694 36937 ft 503 kts 95°
2026-04-25 19:22 54.01393 -30.33803 36925 ft 503 kts 96°
2026-04-25 19:23 54.00682 -30.16002 36939 ft 505 kts 96°
2026-04-25 19:23 54.00188 -29.98053 36945 ft 507 kts 90°
2026-04-25 19:24 54.00572 -29.86059 36945 ft 507 kts 87°
2026-04-25 19:25 54.01545 -29.62078 36948 ft 508 kts 87°
2026-04-25 19:25 54.02002 -29.50149 36959 ft 508 kts 87°
2026-04-25 19:26 54.02448 -29.38136 36957 ft 508 kts 87°
2026-04-25 19:26 54.02880 -29.26119 36961 ft 508 kts 88°
2026-04-25 19:27 54.03163 -29.18074 36943 ft 508 kts 88°
2026-04-25 19:27 54.03707 -29.02057 36960 ft 509 kts 88°
2026-04-25 19:28 54.04102 -28.90088 36955 ft 509 kts 88°
2026-04-25 19:28 54.04487 -28.78038 36956 ft 509 kts 88°
2026-04-25 19:29 54.04860 -28.65985 36966 ft 509 kts 88°
2026-04-25 19:29 54.05220 -28.53926 36969 ft 509 kts 88°
2026-04-25 19:30 54.05568 -28.41855 36959 ft 510 kts 88°
2026-04-25 19:30 54.05904 -28.29848 36964 ft 510 kts 88°
2026-04-25 19:31 54.06229 -28.17765 36967 ft 510 kts 88°
2026-04-25 19:31 54.06542 -28.05672 36959 ft 510 kts 88°
2026-04-25 19:32 54.06843 -27.93586 36955 ft 510 kts 88°
2026-04-25 19:32 54.07036 -27.85573 36961 ft 510 kts 89°
2026-04-25 19:33 54.07406 -27.69479 36966 ft 510 kts 89°
2026-04-25 19:33 54.07671 -27.57382 36968 ft 510 kts 89°
2026-04-25 19:34 54.07923 -27.45288 36970 ft 510 kts 89°
2026-04-25 19:34 54.08162 -27.33186 36977 ft 511 kts 89°
2026-04-25 19:35 54.08391 -27.21068 36977 ft 511 kts 89°
2026-04-25 19:35 54.08608 -27.08940 36977 ft 511 kts 89°
2026-04-25 19:36 54.08811 -26.96898 36975 ft 511 kts 89°
2026-04-25 19:36 54.09003 -26.84773 36975 ft 511 kts 89°
2026-04-25 19:37 54.09182 -26.72635 36961 ft 512 kts 89°
2026-04-25 19:37 54.09351 -26.60483 36969 ft 512 kts 89°
2026-04-25 19:38 54.09506 -26.48339 36979 ft 512 kts 89°
2026-04-25 19:38 54.09650 -26.36190 36976 ft 512 kts 90°
2026-04-25 19:39 54.09780 -26.24123 36977 ft 512 kts 90°
2026-04-25 19:39 54.09899 -26.11969 36978 ft 513 kts 90°
2026-04-25 19:40 54.10006 -25.99805 36982 ft 513 kts 90°
2026-04-25 19:40 54.10100 -25.87642 36979 ft 513 kts 90°
2026-04-25 19:41 54.10183 -25.75479 36978 ft 512 kts 90°
2026-04-25 19:41 54.10231 -25.67425 36983 ft 512 kts 90°
2026-04-25 19:42 54.10311 -25.51028 36982 ft 513 kts 90°
2026-04-25 19:42 54.10358 -25.38843 36975 ft 513 kts 90°
2026-04-25 19:43 54.10390 -25.26674 36980 ft 513 kts 91°
2026-04-25 19:43 54.10411 -25.14512 36981 ft 513 kts 91°
2026-04-25 19:44 54.10419 -25.02340 36983 ft 513 kts 91°
2026-04-25 19:44 54.10416 -24.90169 36990 ft 513 kts 91°
2026-04-25 19:45 54.10400 -24.78075 36987 ft 513 kts 91°
2026-04-25 19:45 54.10371 -24.65904 36986 ft 513 kts 91°
2026-04-25 19:46 54.10331 -24.53729 36992 ft 513 kts 91°
2026-04-25 19:46 54.10279 -24.41552 36996 ft 513 kts 91°
2026-04-25 19:47 54.10214 -24.29376 36991 ft 513 kts 91°
2026-04-25 19:47 54.10137 -24.17282 36982 ft 512 kts 92°
2026-04-25 19:48 54.10047 -24.05130 36983 ft 512 kts 92°
2026-04-25 19:48 54.09945 -23.92966 36989 ft 512 kts 92°
2026-04-25 19:49 54.09871 -23.84842 37002 ft 512 kts 92°
2026-04-25 19:49 54.09706 -23.68657 36996 ft 513 kts 92°
2026-04-25 19:50 54.09518 -23.52469 36996 ft 513 kts 92°
2026-04-25 19:51 54.09336 -23.38340 37005 ft 513 kts 92°
2026-04-25 19:51 54.09169 -23.26184 37004 ft 512 kts 93°
2026-04-25 19:52 54.08988 -23.14039 37000 ft 512 kts 93°
2026-04-25 19:52 54.08827 -23.03940 37002 ft 512 kts 93°
2026-04-25 19:53 54.08623 -22.91800 36995 ft 511 kts 93°
2026-04-25 19:53 54.08372 -22.77729 37007 ft 511 kts 94°
2026-04-25 19:54 54.08144 -22.65623 37011 ft 510 kts 94°
2026-04-25 19:54 54.07942 -22.55481 37011 ft 510 kts 94°
2026-04-25 19:55 54.07691 -22.43464 37013 ft 510 kts 94°
2026-04-25 19:55 54.07427 -22.31367 37006 ft 510 kts 94°
2026-04-25 19:56 54.07151 -22.19273 37017 ft 510 kts 94°
2026-04-25 19:56 54.06864 -22.07182 37004 ft 510 kts 94°
2026-04-25 19:57 54.06564 -21.95090 37012 ft 510 kts 94°
2026-04-25 19:57 54.06252 -21.83008 37023 ft 510 kts 95°
2026-04-25 19:58 54.05930 -21.71005 37009 ft 510 kts 95°
2026-04-25 19:58 54.05593 -21.58920 37025 ft 510 kts 95°
2026-04-25 19:59 54.05246 -21.46835 37026 ft 511 kts 95°
2026-04-25 19:59 54.04884 -21.34743 37026 ft 511 kts 95°
2026-04-25 20:00 54.04511 -21.22659 37028 ft 511 kts 95°
2026-04-25 20:00 54.04126 -21.10567 37029 ft 511 kts 95°
2026-04-25 20:01 54.03529 -20.92526 37035 ft 511 kts 96°
2026-04-25 20:01 54.03113 -20.80448 37029 ft 511 kts 96°
2026-04-25 20:02 54.02684 -20.68373 37030 ft 511 kts 96°
2026-04-25 20:02 54.02244 -20.56304 37043 ft 510 kts 96°
2026-04-25 20:03 54.01792 -20.44246 37031 ft 509 kts 96°
2026-04-25 20:03 54.01339 -20.32478 37043 ft 508 kts 96°
2026-04-25 20:04 54.00849 -20.20153 37045 ft 508 kts 96°
2026-04-25 20:04 54.00358 -20.08156 37051 ft 508 kts 96°
2026-04-25 20:05 54.00106 -19.96129 37061 ft 510 kts 91°
2026-04-25 20:05 54.00329 -19.84060 37055 ft 510 kts 90°
2026-04-25 20:06 54.00573 -19.72073 37069 ft 510 kts 90°
2026-04-25 20:06 54.00797 -19.60008 37069 ft 510 kts 90°
2026-04-25 20:07 54.01004 -19.47944 37069 ft 510 kts 90°
2026-04-25 20:07 54.01196 -19.35873 37065 ft 510 kts 91°
2026-04-25 20:08 54.01378 -19.23812 37072 ft 509 kts 91°
2026-04-25 20:08 54.01546 -19.11770 37079 ft 509 kts 91°
2026-04-25 20:09 54.01700 -18.99810 37081 ft 508 kts 91°
2026-04-25 20:09 54.01842 -18.87786 37070 ft 507 kts 91°
2026-04-25 20:10 54.01974 -18.75785 37080 ft 507 kts 91°
2026-04-25 20:10 54.02095 -18.63793 37080 ft 506 kts 91°
2026-04-25 20:11 54.02201 -18.51818 37087 ft 506 kts 91°
2026-04-25 20:11 54.02295 -18.39931 37092 ft 506 kts 92°
2026-04-25 20:12 54.02378 -18.27952 37095 ft 505 kts 92°
2026-04-25 20:12 54.02439 -18.18004 37081 ft 505 kts 92°
2026-04-25 20:13 54.02510 -18.04033 37093 ft 504 kts 92°
2026-04-25 20:13 54.02558 -17.91937 37099 ft 504 kts 92°
2026-04-25 20:14 54.02593 -17.80074 37101 ft 504 kts 92°
2026-04-25 20:14 54.02617 -17.68122 37105 ft 504 kts 92°
2026-04-25 20:15 54.02630 -17.56188 37101 ft 503 kts 92°
2026-04-25 20:15 54.02630 -17.44265 37104 ft 503 kts 93°
2026-04-25 20:16 54.02618 -17.32351 37112 ft 503 kts 93°
2026-04-25 20:16 54.02594 -17.20429 37094 ft 503 kts 93°
2026-04-25 20:17 54.02560 -17.08595 37103 ft 503 kts 93°
2026-04-25 20:17 54.02515 -16.96694 37118 ft 503 kts 94°
2026-04-25 20:18 54.02455 -16.84788 37124 ft 503 kts 94°
2026-04-25 20:18 54.02384 -16.72882 37124 ft 503 kts 94°
2026-04-25 20:19 54.02302 -16.61062 37124 ft 502 kts 94°
2026-04-25 20:19 54.02208 -16.49161 37130 ft 502 kts 94°
2026-04-25 20:20 54.02102 -16.37260 37138 ft 503 kts 94°
2026-04-25 20:20 54.01985 -16.25356 37139 ft 503 kts 94°
2026-04-25 20:21 54.01856 -16.13455 37138 ft 502 kts 94°
2026-04-25 20:21 54.01716 -16.01640 37138 ft 502 kts 94°
2026-04-25 20:22 54.01591 -15.91685 37132 ft 503 kts 95°
2026-04-25 20:22 54.01399 -15.77855 37139 ft 503 kts 95°
2026-04-25 20:23 54.01222 -15.65947 37148 ft 503 kts 95°
2026-04-25 20:23 54.01033 -15.54053 37148 ft 503 kts 95°
2026-04-25 20:24 54.00834 -15.42233 37126 ft 503 kts 95°
2026-04-25 20:24 54.00621 -15.30328 37148 ft 503 kts 95°
2026-04-25 20:25 54.00394 -15.18418 37146 ft 503 kts 95°
2026-04-25 20:25 54.00154 -15.06520 37163 ft 503 kts 95°
2026-04-25 20:26 54.00035 -14.94609 37162 ft 504 kts 93°
2026-04-25 20:26 54.00080 -14.82756 37155 ft 504 kts 93°
2026-04-25 20:27 54.00115 -14.70819 37162 ft 504 kts 93°
2026-04-25 20:27 54.00131 -14.58891 37163 ft 504 kts 93°
2026-04-25 20:28 54.00132 -14.46966 37165 ft 504 kts 93°
2026-04-25 20:28 54.00120 -14.35051 37167 ft 504 kts 94°
2026-04-25 20:29 54.00094 -14.23212 37172 ft 503 kts 94°
2026-04-25 20:29 53.99957 -14.11311 37174 ft 501 kts 97°
2026-04-25 20:30 53.99140 -13.99574 37178 ft 498 kts 104°
2026-04-25 20:30 53.97560 -13.88154 37179 ft 494 kts 110°
2026-04-25 20:31 53.95377 -13.77095 37150 ft 493 kts 113°
2026-04-25 20:31 53.93133 -13.66175 37187 ft 493 kts 113°
2026-04-25 20:32 53.90872 -13.55179 37175 ft 493 kts 113°
2026-04-25 20:32 53.88604 -13.44189 37180 ft 493 kts 113°
2026-04-25 20:33 53.86328 -13.33215 37190 ft 493 kts 113°
2026-04-25 20:33 53.84429 -13.24104 37187 ft 493 kts 113°
2026-04-25 20:34 53.81760 -13.11380 37188 ft 493 kts 113°
2026-04-25 20:34 53.79453 -13.00433 37195 ft 493 kts 113°
2026-04-25 20:35 53.77137 -12.89507 37191 ft 493 kts 113°
2026-04-25 20:35 53.74811 -12.78584 37200 ft 493 kts 113°
2026-04-25 20:36 53.72474 -12.67675 37200 ft 493 kts 113°
2026-04-25 20:36 53.70128 -12.56783 37185 ft 493 kts 113°
2026-04-25 20:37 53.67783 -12.45961 37199 ft 494 kts 113°
2026-04-25 20:37 53.65415 -12.35077 37202 ft 494 kts 114°
2026-04-25 20:38 53.63037 -12.24207 37206 ft 494 kts 114°
2026-04-25 20:38 53.60648 -12.13345 37201 ft 493 kts 114°
2026-04-25 20:39 53.58251 -12.02506 37209 ft 493 kts 114°
2026-04-25 20:39 53.56249 -11.93505 37204 ft 494 kts 114°
2026-04-25 20:40 53.53439 -11.80923 37208 ft 494 kts 114°
2026-04-25 20:40 53.51012 -11.70109 37209 ft 494 kts 114°
2026-04-25 20:41 53.48574 -11.59310 37209 ft 494 kts 114°
2026-04-25 20:41 53.46127 -11.48526 37211 ft 494 kts 114°
2026-04-25 20:42 53.43669 -11.37753 37196 ft 494 kts 114°
2026-04-25 20:42 53.41217 -11.27059 37211 ft 494 kts 114°
2026-04-25 20:43 53.38737 -11.16294 37213 ft 494 kts 114°
2026-04-25 20:43 53.36249 -11.05545 37215 ft 494 kts 114°
2026-04-25 20:44 53.35003 -11.00183 37216 ft 494 kts 114°